Weather in Jorhat

India     26˚45′55″N   94˚12′57″E
temp.,
°C
wind,
m/s
gust,
m/s
humid.,
%
clouds,
%
prec.,
mm/h
press.,
hPa
HPBL,
m
17 january, sun
sun1723:30+16˚ne126828 0.0 101326
02:30+15˚nne117463 0.0 101423
05:30+14˚s118281 0.0 101523
08:30+19˚ene1164100 0.0 1018337
11:30+24˚ne344692 0.0 1016962
14:30+26˚ne33390 0.0 10141156
17:30+21˚ne23510 0.0 101523
20:30+18˚ene12610 0.0 101723
18 january, mon
mon1823:30+17˚ene11690 0.0 101723
02:30+15˚s11770 0.0 101723
05:30+14˚sse01830 0.0 101723
08:30+20˚nnw11630 0.0 1018353
11:30+25˚nne23430 0.0 1016915
14:30+26˚nne11370 0.0 10121044
17:30+21˚ene11490 0.0 101323
20:30+19˚e12579 0.0 101423
19 january, tue
tue1923:30+17˚wsw01664 0.0 101423
02:30+16˚sw00721 0.0 101323
05:30+16˚nne127221 0.0 101457
08:30+20˚ene236374 0.0 1015389
11:30+24˚nne334857 0.0 10141156
14:30+25˚nnw234319 0.4 10111684
17:30+20˚wnw115955 0.7 101223
20:30+17˚ssw127364 0.1 101424
20 january, wed
wed2023:30+17˚s227978 0.7 101445
02:30+16˚ssw2288100 1.2 1013116
05:30+15˚ne118997 1.3 101445
08:30+19˚nne237374 0.6 1016359
11:30+21˚nne335783 2.6 1014781
14:30+22˚nne325288 0.0 1012937
17:30+18˚nne476990 0.1 1013205
20:30+17˚ene378097 0.7 1015261
21 january, thu
thu2123:30+16˚nnw348496 0.9 1015160
02:30+16˚n228997 0.4 1014151
05:30+15˚e129293 0.5 101551
08:30+18˚ne227565 0.0 1016402
11:30+22˚ne225137 0.1 10141029
14:30+24˚nnw12430 0.0 10121447
17:30+19˚nne23560 0.0 101325
20:30+17˚ene23650 0.0 101538